owner,sensor,date,latitude,longitude,vertical_datum,wind_speed,wind_to_direction,wind_speed_of_gust,qcFlag 
LOOP,urn:ioos:station:wmo:lopl1:1,2016-12-01T00:33:00Z,28.8850,-90.0250,10.0,8.4,351.0,11.9,'11111222,11111222,11111222' 
LOOP,urn:ioos:station:wmo:lopl1:1,2016-12-01T01:33:00Z,28.8850,-90.0250,10.0,8.7,2.0,10.9,'11111222,11111222,11111222' 
LOOP,urn:ioos:station:wmo:lopl1:1,2016-12-01T02:33:00Z,28.8850,-90.0250,10.0,8.3,4.0,11.4,'11111222,11111222,11111222' 
LOOP,urn:ioos:station:wmo:lopl1:1,2016-12-01T03:33:00Z,28.8850,-90.0250,10.0,10.0,6.0,12.3,'11111222,11111222,11111222' 
LOOP,urn:ioos:station:wmo:lopl1:1,2016-12-01T04:33:00Z,28.8850,-90.0250,10.0,8.9,10.0,11.1,'11111222,11111222,11111222' 
LOOP,urn:ioos:station:wmo:lopl1:1,2016-12-01T05:38:00Z,28.8850,-90.0250,10.0,7.5,7.0,10.1,'11111222,11111222,11111222' 
LOOP,urn:ioos:station:wmo:lopl1:1,2016-12-01T06:38:00Z,28.8850,-90.0250,10.0,7.6,4.0,10.0,'11111222,11111222,11111222' 
LOOP,urn:ioos:station:wmo:lopl1:1,2016-12-01T07:38:00Z,28.8850,-90.0250,10.0,7.5,0.0,10.9,'11111222,11111222,11111222' 
LOOP,urn:ioos:station:wmo:lopl1:1,2016-12-01T08:38:00Z,28.8850,-90.0250,10.0,7.2,357.0,10.8,'11111222,11111222,11111222' 
LOOP,urn:ioos:station:wmo:lopl1:1,2016-12-01T09:43:00Z,28.8850,-90.0250,10.0,11.7,0.0,14.1,'11111222,11111222,11111222' 
LOOP,urn:ioos:station:wmo:lopl1:1,2016-12-01T09:53:00Z,28.8850,-90.0250,10.0,11.5,8.0,13.5,'11111222,11111222,11111222' 
LOOP,urn:ioos:station:wmo:lopl1:1,2016-12-01T10:53:00Z,28.8850,-90.0250,10.0,11.8,7.0,14.8,'11111222,11111222,11111222' 
LOOP,urn:ioos:station:wmo:lopl1:1,2016-12-01T11:53:00Z,28.8850,-90.0250,10.0,12.2,14.0,14.8,'11111222,11111222,11111222' 
LOOP,urn:ioos:station:wmo:lopl1:1,2016-12-01T12:53:00Z,28.8850,-90.0250,10.0,12.3,31.0,14.6,'11111222,11111222,11111222' 
LOOP,urn:ioos:station:wmo:lopl1:1,2016-12-01T13:53:00Z,28.8850,-90.0250,10.0,11.6,24.0,14.2,'11111222,11111222,11111222' 
LOOP,urn:ioos:station:wmo:lopl1:1,2016-12-01T14:53:00Z,28.8850,-90.0250,10.0,10.6,30.0,13.0,'11111222,11111222,11111222' 
LOOP,urn:ioos:station:wmo:lopl1:1,2016-12-01T15:53:00Z,28.8850,-90.0250,10.0,10.5,24.0,12.9,'11111222,11111222,11111222' 
LOOP,urn:ioos:station:wmo:lopl1:1,2016-12-01T16:53:00Z,28.8850,-90.0250,10.0,9.3,29.0,12.2,'11111222,11111222,11111222' 
LOOP,urn:ioos:station:wmo:lopl1:1,2016-12-01T17:58:00Z,28.8850,-90.0250,10.0,8.8,34.0,10.4,'11111222,11111222,11111222' 
LOOP,urn:ioos:station:wmo:lopl1:1,2016-12-01T18:58:00Z,28.8850,-90.0250,10.0,6.6,36.0,9.4,'11111222,11111222,11111222' 
LOOP,urn:ioos:station:wmo:lopl1:1,2016-12-01T19:58:00Z,28.8850,-90.0250,10.0,6.7,28.0,8.1,'11111222,11111222,11111222' 
LOOP,urn:ioos:station:wmo:lopl1:1,2016-12-01T20:58:00Z,28.8850,-90.0250,10.0,6.4,19.0,8.8,'11111222,11111222,11111222' 
LOOP,urn:ioos:station:wmo:lopl1:1,2016-12-01T21:58:00Z,28.8850,-90.0250,10.0,7.9,29.0,10.1,'11111222,11111222,11111222' 
LOOP,urn:ioos:station:wmo:lopl1:1,2016-12-01T22:58:00Z,28.8850,-90.0250,10.0,7.8,32.0,9.9,'11111222,11111222,11111222' 
LOOP,urn:ioos:station:wmo:lopl1:1,2016-12-01T23:58:00Z,28.8850,-90.0250,10.0,8.0,31.0,9.7,'11111222,11111222,11111222' 
LOOP,urn:ioos:station:wmo:lopl1:1,2016-12-02T00:58:00Z,28.8850,-90.0250,10.0,6.3,32.0,8.2,'11111222,11111222,11111222' 
LOOP,urn:ioos:station:wmo:lopl1:1,2016-12-02T01:58:00Z,28.8850,-90.0250,10.0,6.7,46.0,9.4,'11111222,11111222,11111222' 
LOOP,urn:ioos:station:wmo:lopl1:1,2016-12-02T02:58:00Z,28.8850,-90.0250,10.0,7.0,48.0,9.7,'11111222,11111222,11111222' 
LOOP,urn:ioos:station:wmo:lopl1:1,2016-12-02T04:03:00Z,28.8850,-90.0250,10.0,7.4,58.0,8.9,'11111222,11111222,11111222' 
LOOP,urn:ioos:station:wmo:lopl1:1,2016-12-02T05:03:00Z,28.8850,-90.0250,10.0,7.1,63.0,8.6,'11111222,11111222,11111222' 
LOOP,urn:ioos:station:wmo:lopl1:1,2016-12-02T06:18:00Z,28.8850,-90.0250,10.0,7.0,68.0,8.9,'11111222,11111222,11111222' 
LOOP,urn:ioos:station:wmo:lopl1:1,2016-12-02T07:18:00Z,28.8850,-90.0250,10.0,6.9,57.0,8.8,'11111222,11111222,11111222' 
LOOP,urn:ioos:station:wmo:lopl1:1,2016-12-02T08:18:00Z,28.8850,-90.0250,10.0,7.5,52.0,8.8,'11111222,11111222,11111222' 
LOOP,urn:ioos:station:wmo:lopl1:1,2016-12-02T09:18:00Z,28.8850,-90.0250,10.0,7.9,56.0,9.9,'11111222,11111222,11111222' 
LOOP,urn:ioos:station:wmo:lopl1:1,2016-12-02T10:18:00Z,28.8850,-90.0250,10.0,9.1,66.0,10.7,'11111222,11111222,11111222' 
LOOP,urn:ioos:station:wmo:lopl1:1,2016-12-02T11:18:00Z,28.8850,-90.0250,10.0,9.1,70.0,10.8,'11111222,11111222,11111222' 
LOOP,urn:ioos:station:wmo:lopl1:1,2016-12-02T12:18:00Z,28.8850,-90.0250,10.0,9.9,74.0,12.0,'11111222,11111222,11111222' 
LOOP,urn:ioos:station:wmo:lopl1:1,2016-12-02T13:18:00Z,28.8850,-90.0250,10.0,11.6,70.0,12.9,'11111222,11111222,11111222' 
LOOP,urn:ioos:station:wmo:lopl1:1,2016-12-02T14:18:00Z,28.8850,-90.0250,10.0,12.1,70.0,13.7,'11111222,11111222,11111222' 
LOOP,urn:ioos:station:wmo:lopl1:1,2016-12-02T15:23:00Z,28.8850,-90.0250,10.0,10.7,80.0,12.5,'11111222,11111222,11111222' 
LOOP,urn:ioos:station:wmo:lopl1:1,2016-12-02T16:23:00Z,28.8850,-90.0250,10.0,10.0,71.0,11.6,'11111222,11111222,11111222' 
LOOP,urn:ioos:station:wmo:lopl1:1,2016-12-02T17:23:00Z,28.8850,-90.0250,10.0,10.1,79.0,12.8,'11111222,11111222,11111222' 
LOOP,urn:ioos:station:wmo:lopl1:1,2016-12-02T18:23:00Z,28.8850,-90.0250,10.0,9.8,82.0,11.5,'11111222,11111222,11111222' 
LOOP,urn:ioos:station:wmo:lopl1:1,2016-12-02T19:23:00Z,28.8850,-90.0250,10.0,10.5,83.0,13.0,'11111222,11111222,11111222' 
LOOP,urn:ioos:station:wmo:lopl1:1,2016-12-02T20:23:00Z,28.8850,-90.0250,10.0,11.3,89.0,12.9,'11111222,11111222,11111222' 
LOOP,urn:ioos:station:wmo:lopl1:1,2016-12-02T21:23:00Z,28.8850,-90.0250,10.0,10.4,83.0,12.8,'11111222,11111222,11111222' 
LOOP,urn:ioos:station:wmo:lopl1:1,2016-12-02T22:23:00Z,28.8850,-90.0250,10.0,11.4,76.0,13.2,'11111222,11111222,11111222' 
LOOP,urn:ioos:station:wmo:lopl1:1,2016-12-02T23:23:00Z,28.8850,-90.0250,10.0,11.8,98.0,13.6,'11111222,11111222,11111222' 
LOOP,urn:ioos:station:wmo:lopl1:1,2016-12-03T00:23:00Z,28.8850,-90.0250,10.0,12.7,80.0,14.6,'11111222,11111222,11111222' 
LOOP,urn:ioos:station:wmo:lopl1:1,2016-12-03T01:28:00Z,28.8850,-90.0250,10.0,11.2,92.0,13.1,'11111222,11111222,11111222' 
LOOP,urn:ioos:station:wmo:lopl1:1,2016-12-03T02:28:00Z,28.8850,-90.0250,10.0,11.4,78.0,14.2,'11111222,11111222,11111222' 
LOOP,urn:ioos:station:wmo:lopl1:1,2016-12-03T03:28:00Z,28.8850,-90.0250,10.0,11.6,74.0,12.9,'11111222,11111222,11111222' 
LOOP,urn:ioos:station:wmo:lopl1:1,2016-12-03T04:28:00Z,28.8850,-90.0250,10.0,11.9,95.0,13.4,'11111222,11111222,11111222' 
LOOP,urn:ioos:station:wmo:lopl1:1,2016-12-03T05:28:00Z,28.8850,-90.0250,10.0,11.3,75.0,12.6,'11111222,11111222,11111222' 
LOOP,urn:ioos:station:wmo:lopl1:1,2016-12-03T06:28:00Z,28.8850,-90.0250,10.0,11.5,88.0,13.4,'11111222,11111222,11111222' 
LOOP,urn:ioos:station:wmo:lopl1:1,2016-12-03T07:28:00Z,28.8850,-90.0250,10.0,11.0,92.0,12.4,'11111222,11111222,11111222' 
LOOP,urn:ioos:station:wmo:lopl1:1,2016-12-03T08:28:00Z,28.8850,-90.0250,10.0,11.3,87.0,12.7,'11111222,11111222,11111222' 
LOOP,urn:ioos:station:wmo:lopl1:1,2016-12-03T09:28:00Z,28.8850,-90.0250,10.0,11.5,115.0,13.2,'11111222,11111222,11111222' 
LOOP,urn:ioos:station:wmo:lopl1:1,2016-12-03T10:28:00Z,28.8850,-90.0250,10.0,12.6,125.0,13.8,'11111222,11111222,11111222' 
LOOP,urn:ioos:station:wmo:lopl1:1,2016-12-03T11:28:00Z,28.8850,-90.0250,10.0,12.6,122.0,13.9,'11111222,11111222,11111222' 
LOOP,urn:ioos:station:wmo:lopl1:1,2016-12-03T12:28:00Z,28.8850,-90.0250,10.0,12.3,130.0,14.4,'11111222,11111222,11111222' 
LOOP,urn:ioos:station:wmo:lopl1:1,2016-12-03T13:28:00Z,28.8850,-90.0250,10.0,12.9,124.0,14.4,'11111222,11111222,11111222' 
LOOP,urn:ioos:station:wmo:lopl1:1,2016-12-03T14:33:00Z,28.8850,-90.0250,10.0,11.6,125.0,13.2,'11111222,11111222,11111222' 
LOOP,urn:ioos:station:wmo:lopl1:1,2016-12-03T15:33:00Z,28.8850,-90.0250,10.0,11.8,142.0,13.3,'11111222,11111222,11111222' 
LOOP,urn:ioos:station:wmo:lopl1:1,2016-12-03T16:33:00Z,28.8850,-90.0250,10.0,11.1,136.0,12.7,'11111222,11111222,11111222' 
LOOP,urn:ioos:station:wmo:lopl1:1,2016-12-03T17:33:00Z,28.8850,-90.0250,10.0,10.9,125.0,12.4,'11111222,11111222,11111222' 
LOOP,urn:ioos:station:wmo:lopl1:1,2016-12-03T18:33:00Z,28.8850,-90.0250,10.0,11.1,139.0,13.1,'11111222,11111222,11111222' 
LOOP,urn:ioos:station:wmo:lopl1:1,2016-12-03T19:33:00Z,28.8850,-90.0250,10.0,11.6,128.0,13.0,'11111222,11111222,11111222' 
LOOP,urn:ioos:station:wmo:lopl1:1,2016-12-03T20:33:00Z,28.8850,-90.0250,10.0,11.7,130.0,12.7,'11111222,11111222,11111222' 
LOOP,urn:ioos:station:wmo:lopl1:1,2016-12-03T21:33:00Z,28.8850,-90.0250,10.0,11.0,133.0,11.8,'11111222,11111222,11111222' 
LOOP,urn:ioos:station:wmo:lopl1:1,2016-12-03T22:33:00Z,28.8850,-90.0250,10.0,11.3,137.0,12.2,'11111222,11111222,11111222' 
LOOP,urn:ioos:station:wmo:lopl1:1,2016-12-03T23:33:00Z,28.8850,-90.0250,10.0,11.3,133.0,12.6,'11111222,11111222,11111222' 
LOOP,urn:ioos:station:wmo:lopl1:1,2016-12-04T00:33:00Z,28.8850,-90.0250,10.0,11.9,133.0,12.9,'11111222,11111222,11111222' 
LOOP,urn:ioos:station:wmo:lopl1:1,2016-12-04T01:33:00Z,28.8850,-90.0250,10.0,11.3,129.0,12.5,'11111222,11111222,11111222' 
LOOP,urn:ioos:station:wmo:lopl1:1,2016-12-04T02:38:00Z,28.8850,-90.0250,10.0,9.1,126.0,10.1,'11111222,11111222,11111222' 
LOOP,urn:ioos:station:wmo:lopl1:1,2016-12-04T03:38:00Z,28.8850,-90.0250,10.0,5.1,179.0,7.5,'11111222,11111222,11111222' 
LOOP,urn:ioos:station:wmo:lopl1:1,2016-12-04T04:38:00Z,28.8850,-90.0250,10.0,12.0,149.0,13.9,'11111222,11111222,11111222' 
LOOP,urn:ioos:station:wmo:lopl1:1,2016-12-04T05:38:00Z,28.8850,-90.0250,10.0,12.0,158.0,13.4,'11111222,11111222,11111222' 
LOOP,urn:ioos:station:wmo:lopl1:1,2016-12-04T06:38:00Z,28.8850,-90.0250,10.0,11.2,154.0,12.6,'11111222,11111222,11111222' 
LOOP,urn:ioos:station:wmo:lopl1:1,2016-12-04T07:38:00Z,28.8850,-90.0250,10.0,12.0,163.0,13.7,'11111222,11111222,11111222' 
LOOP,urn:ioos:station:wmo:lopl1:1,2016-12-04T08:38:00Z,28.8850,-90.0250,10.0,9.5,159.0,12.9,'11111222,11111222,11111222' 
LOOP,urn:ioos:station:wmo:lopl1:1,2016-12-04T09:38:00Z,28.8850,-90.0250,10.0,8.4,-9999.0,12.8,'11111222,99999999,11111222' 
LOOP,urn:ioos:station:wmo:lopl1:1,2016-12-04T10:38:00Z,28.8850,-90.0250,10.0,7.3,-9999.0,12.1,'11111222,99999999,11111222' 
LOOP,urn:ioos:station:wmo:lopl1:1,2016-12-04T11:38:00Z,28.8850,-90.0250,10.0,8.2,-9999.0,11.4,'11111222,99999999,11111222' 
LOOP,urn:ioos:station:wmo:lopl1:1,2016-12-04T12:38:00Z,28.8850,-90.0250,10.0,6.6,-9999.0,9.1,'11111222,99999999,11111222' 
LOOP,urn:ioos:station:wmo:lopl1:1,2016-12-04T13:38:00Z,28.8850,-90.0250,10.0,6.9,-9999.0,9.0,'11111222,99999999,11111222' 
LOOP,urn:ioos:station:wmo:lopl1:1,2016-12-04T14:38:00Z,28.8850,-90.0250,10.0,6.4,-9999.0,8.6,'11111222,99999999,11111222' 
LOOP,urn:ioos:station:wmo:lopl1:1,2016-12-04T15:43:00Z,28.8850,-90.0250,10.0,6.0,-9999.0,8.9,'11111222,99999999,11111222' 
LOOP,urn:ioos:station:wmo:lopl1:1,2016-12-04T16:43:00Z,28.8850,-90.0250,10.0,6.3,-9999.0,8.6,'11111222,99999999,11111222' 
LOOP,urn:ioos:station:wmo:lopl1:1,2016-12-04T17:43:00Z,28.8850,-90.0250,10.0,9.7,-9999.0,11.5,'11111222,99999999,11111222' 
LOOP,urn:ioos:station:wmo:lopl1:1,2016-12-04T18:43:00Z,28.8850,-90.0250,10.0,9.3,-9999.0,10.3,'11111222,99999999,11111222' 
LOOP,urn:ioos:station:wmo:lopl1:1,2016-12-04T19:43:00Z,28.8850,-90.0250,10.0,6.6,-9999.0,7.5,'11111222,99999999,11111222' 
LOOP,urn:ioos:station:wmo:lopl1:1,2016-12-04T20:43:00Z,28.8850,-90.0250,10.0,5.1,-9999.0,7.2,'11111222,99999999,11111222' 
LOOP,urn:ioos:station:wmo:lopl1:1,2016-12-04T21:43:00Z,28.8850,-90.0250,10.0,4.9,-9999.0,6.7,'11111222,99999999,11111222' 
LOOP,urn:ioos:station:wmo:lopl1:1,2016-12-04T22:43:00Z,28.8850,-90.0250,10.0,7.9,-9999.0,8.6,'11111222,99999999,11111222' 
LOOP,urn:ioos:station:wmo:lopl1:1,2016-12-04T23:43:00Z,28.8850,-90.0250,10.0,9.1,328.0,13.6,'11111222,11111222,11111222' 
LOOP,urn:ioos:station:wmo:lopl1:1,2016-12-05T00:43:00Z,28.8850,-90.0250,10.0,12.5,1.0,15.9,'11111222,11111222,11111222' 
LOOP,urn:ioos:station:wmo:lopl1:1,2016-12-05T01:43:00Z,28.8850,-90.0250,10.0,12.7,12.0,16.4,'11111222,11111222,11111222' 
LOOP,urn:ioos:station:wmo:lopl1:1,2016-12-05T02:48:00Z,28.8850,-90.0250,10.0,11.1,6.0,14.5,'11111222,11111222,11111222' 
LOOP,urn:ioos:station:wmo:lopl1:1,2016-12-05T03:48:00Z,28.8850,-90.0250,10.0,12.7,23.0,14.6,'11111222,11111222,11111222' 
LOOP,urn:ioos:station:wmo:lopl1:1,2016-12-05T04:48:00Z,28.8850,-90.0250,10.0,9.6,51.0,11.7,'11111222,11111222,11111222' 
LOOP,urn:ioos:station:wmo:lopl1:1,2016-12-05T05:48:00Z,28.8850,-90.0250,10.0,9.6,90.0,10.4,'11111222,11111222,11111222' 
LOOP,urn:ioos:station:wmo:lopl1:1,2016-12-05T06:48:00Z,28.8850,-90.0250,10.0,11.1,111.0,12.5,'11111222,11111222,11111222' 
LOOP,urn:ioos:station:wmo:lopl1:1,2016-12-05T07:48:00Z,28.8850,-90.0250,10.0,12.0,113.0,13.0,'11111222,11111222,11111222' 
LOOP,urn:ioos:station:wmo:lopl1:1,2016-12-05T08:48:00Z,28.8850,-90.0250,10.0,11.6,129.0,12.6,'11111222,11111222,11111222' 
LOOP,urn:ioos:station:wmo:lopl1:1,2016-12-05T09:48:00Z,28.8850,-90.0250,10.0,10.0,129.0,10.7,'11111222,11111222,11111222' 
LOOP,urn:ioos:station:wmo:lopl1:1,2016-12-05T10:48:00Z,28.8850,-90.0250,10.0,9.8,133.0,10.5,'11111222,11111222,11111222' 
LOOP,urn:ioos:station:wmo:lopl1:1,2016-12-05T11:48:00Z,28.8850,-90.0250,10.0,7.9,139.0,8.6,'11111222,11111222,11111222' 
LOOP,urn:ioos:station:wmo:lopl1:1,2016-12-05T12:48:00Z,28.8850,-90.0250,10.0,6.7,126.0,7.6,'11111222,11111222,11111222' 
LOOP,urn:ioos:station:wmo:lopl1:1,2016-12-05T13:53:00Z,28.8850,-90.0250,10.0,6.2,107.0,6.7,'11111222,11111222,11111222' 
LOOP,urn:ioos:station:wmo:lopl1:1,2016-12-05T14:53:00Z,28.8850,-90.0250,10.0,6.0,110.0,6.9,'11111222,11111222,11111222' 
LOOP,urn:ioos:station:wmo:lopl1:1,2016-12-05T15:53:00Z,28.8850,-90.0250,10.0,8.5,155.0,9.6,'11111222,11111222,11111222' 
LOOP,urn:ioos:station:wmo:lopl1:1,2016-12-05T16:53:00Z,28.8850,-90.0250,10.0,11.0,-9999.0,16.3,'11111222,99999999,11111222' 
LOOP,urn:ioos:station:wmo:lopl1:1,2016-12-05T17:53:00Z,28.8850,-90.0250,10.0,9.3,-9999.0,13.1,'11111222,99999999,11111222' 
LOOP,urn:ioos:station:wmo:lopl1:1,2016-12-05T18:53:00Z,28.8850,-90.0250,10.0,8.6,-9999.0,10.5,'11111222,99999999,11111222' 
LOOP,urn:ioos:station:wmo:lopl1:1,2016-12-05T19:53:00Z,28.8850,-90.0250,10.0,11.1,-9999.0,12.5,'11111222,99999999,11111222' 
LOOP,urn:ioos:station:wmo:lopl1:1,2016-12-05T20:53:00Z,28.8850,-90.0250,10.0,9.5,-9999.0,10.1,'11111222,99999999,11111222' 
LOOP,urn:ioos:station:wmo:lopl1:1,2016-12-05T21:53:00Z,28.8850,-90.0250,10.0,7.5,-9999.0,8.3,'11111222,99999999,11111222' 
LOOP,urn:ioos:station:wmo:lopl1:1,2016-12-05T22:53:00Z,28.8850,-90.0250,10.0,6.9,-9999.0,8.3,'11111222,99999999,11111222' 
LOOP,urn:ioos:station:wmo:lopl1:1,2016-12-05T23:53:00Z,28.8850,-90.0250,10.0,6.8,-9999.0,8.0,'11111222,99999999,11111222' 
LOOP,urn:ioos:station:wmo:lopl1:1,2016-12-06T00:53:00Z,28.8850,-90.0250,10.0,5.9,-9999.0,7.4,'11111222,99999999,11111222' 
LOOP,urn:ioos:station:wmo:lopl1:1,2016-12-06T01:53:00Z,28.8850,-90.0250,10.0,6.2,-9999.0,8.4,'11111222,99999999,11111222' 
LOOP,urn:ioos:station:wmo:lopl1:1,2016-12-06T02:58:00Z,28.8850,-90.0250,10.0,4.7,-9999.0,10.7,'11111222,99999999,11111222' 
LOOP,urn:ioos:station:wmo:lopl1:1,2016-12-06T03:58:00Z,28.8850,-90.0250,10.0,5.0,274.0,10.2,'11111222,11111222,11111222' 
LOOP,urn:ioos:station:wmo:lopl1:1,2016-12-06T04:58:00Z,28.8850,-90.0250,10.0,8.1,291.0,12.1,'11111222,11111222,11111222' 
LOOP,urn:ioos:station:wmo:lopl1:1,2016-12-06T05:58:00Z,28.8850,-90.0250,10.0,11.9,283.0,14.7,'11111222,11111222,11111222' 
LOOP,urn:ioos:station:wmo:lopl1:1,2016-12-06T06:58:00Z,28.8850,-90.0250,10.0,11.2,288.0,15.4,'11111222,11111222,11111222' 
LOOP,urn:ioos:station:wmo:lopl1:1,2016-12-06T07:58:00Z,28.8850,-90.0250,10.0,12.6,287.0,15.7,'11111222,11111222,11111222' 
LOOP,urn:ioos:station:wmo:lopl1:1,2016-12-06T08:58:00Z,28.8850,-90.0250,10.0,10.9,291.0,13.4,'11111222,11111222,11111222' 
LOOP,urn:ioos:station:wmo:lopl1:1,2016-12-06T09:58:00Z,28.8850,-90.0250,10.0,12.5,292.0,16.0,'11111222,11111222,11111222' 
LOOP,urn:ioos:station:wmo:lopl1:1,2016-12-06T10:58:00Z,28.8850,-90.0250,10.0,12.4,288.0,15.5,'11111222,11111222,11111222' 
LOOP,urn:ioos:station:wmo:lopl1:1,2016-12-06T11:58:00Z,28.8850,-90.0250,10.0,8.1,307.0,14.2,'11111222,11111222,11111222' 
LOOP,urn:ioos:station:wmo:lopl1:1,2016-12-06T12:58:00Z,28.8850,-90.0250,10.0,5.7,291.0,10.9,'11111222,11111222,11111222' 
LOOP,urn:ioos:station:wmo:lopl1:1,2016-12-06T13:58:00Z,28.8850,-90.0250,10.0,6.8,321.0,9.9,'11111222,11111222,11111222' 
LOOP,urn:ioos:station:wmo:lopl1:1,2016-12-06T14:58:00Z,28.8850,-90.0250,10.0,5.4,317.0,9.1,'11111222,11111222,11111222' 
LOOP,urn:ioos:station:wmo:lopl1:1,2016-12-06T15:58:00Z,28.8850,-90.0250,10.0,5.5,303.0,8.5,'11111222,11111222,11111222' 
LOOP,urn:ioos:station:wmo:lopl1:1,2016-12-06T16:58:00Z,28.8850,-90.0250,10.0,4.8,275.0,7.7,'11111222,11111222,11111222' 
LOOP,urn:ioos:station:wmo:lopl1:1,2016-12-06T19:03:00Z,28.8850,-90.0250,10.0,5.3,303.0,7.1,'11111222,11111222,11111222' 
LOOP,urn:ioos:station:wmo:lopl1:1,2016-12-06T20:03:00Z,28.8850,-90.0250,10.0,3.7,276.0,6.4,'11111222,11111222,11111222' 
LOOP,urn:ioos:station:wmo:lopl1:1,2016-12-06T21:08:00Z,28.8850,-90.0250,10.0,3.2,291.0,4.8,'11111222,11111222,11111222' 
LOOP,urn:ioos:station:wmo:lopl1:1,2016-12-06T22:08:00Z,28.8850,-90.0250,10.0,3.1,-9999.0,4.9,'11111222,99999999,11111222' 
LOOP,urn:ioos:station:wmo:lopl1:1,2016-12-06T23:08:00Z,28.8850,-90.0250,10.0,2.3,301.0,3.6,'11111222,11111222,11111222' 
LOOP,urn:ioos:station:wmo:lopl1:1,2016-12-07T00:08:00Z,28.8850,-90.0250,10.0,2.3,295.0,3.6,'11111222,11111222,11111222' 
LOOP,urn:ioos:station:wmo:lopl1:1,2016-12-07T01:08:00Z,28.8850,-90.0250,10.0,2.4,359.0,3.5,'11111222,11111222,11111222' 
LOOP,urn:ioos:station:wmo:lopl1:1,2016-12-07T02:08:00Z,28.8850,-90.0250,10.0,2.4,314.0,4.2,'11111222,11111222,11111222' 
LOOP,urn:ioos:station:wmo:lopl1:1,2016-12-07T03:08:00Z,28.8850,-90.0250,10.0,2.4,359.0,4.3,'11111222,11111222,11111222' 
LOOP,urn:ioos:station:wmo:lopl1:1,2016-12-07T04:08:00Z,28.8850,-90.0250,10.0,4.6,21.0,6.0,'11111222,11111222,11111222' 
LOOP,urn:ioos:station:wmo:lopl1:1,2016-12-07T05:08:00Z,28.8850,-90.0250,10.0,3.6,41.0,4.9,'11111222,11111222,11111222' 
LOOP,urn:ioos:station:wmo:lopl1:1,2016-12-07T06:08:00Z,28.8850,-90.0250,10.0,3.8,57.0,4.8,'11111222,11111222,11111222' 
LOOP,urn:ioos:station:wmo:lopl1:1,2016-12-07T07:08:00Z,28.8850,-90.0250,10.0,3.4,92.0,4.4,'11111222,11111222,11111222' 
LOOP,urn:ioos:station:wmo:lopl1:1,2016-12-07T08:08:00Z,28.8850,-90.0250,10.0,3.4,95.0,4.9,'11111222,11111222,11111222' 
LOOP,urn:ioos:station:wmo:lopl1:1,2016-12-07T09:08:00Z,28.8850,-90.0250,10.0,3.3,123.0,4.0,'11111222,11111222,11111222' 
LOOP,urn:ioos:station:wmo:lopl1:1,2016-12-07T10:08:00Z,28.8850,-90.0250,10.0,3.4,76.0,4.5,'11111222,11111222,11111222' 
LOOP,urn:ioos:station:wmo:lopl1:1,2016-12-07T11:08:00Z,28.8850,-90.0250,10.0,4.1,73.0,5.1,'11111222,11111222,11111222' 
LOOP,urn:ioos:station:wmo:lopl1:1,2016-12-07T12:08:00Z,28.8850,-90.0250,10.0,4.9,99.0,6.2,'11111222,11111222,11111222' 
LOOP,urn:ioos:station:wmo:lopl1:1,2016-12-07T13:08:00Z,28.8850,-90.0250,10.0,5.2,90.0,6.4,'11111222,11111222,11111222' 
LOOP,urn:ioos:station:wmo:lopl1:1,2016-12-07T14:08:00Z,28.8850,-90.0250,10.0,4.8,63.0,5.7,'11111222,11111222,11111222' 
LOOP,urn:ioos:station:wmo:lopl1:1,2016-12-07T15:08:00Z,28.8850,-90.0250,10.0,5.6,76.0,6.4,'11111222,11111222,11111222' 
LOOP,urn:ioos:station:wmo:lopl1:1,2016-12-07T16:13:00Z,28.8850,-90.0250,10.0,5.0,72.0,6.3,'11111222,11111222,11111222' 
LOOP,urn:ioos:station:wmo:lopl1:1,2016-12-07T17:13:00Z,28.8850,-90.0250,10.0,5.0,76.0,5.9,'11111222,11111222,11111222' 
LOOP,urn:ioos:station:wmo:lopl1:1,2016-12-07T18:13:00Z,28.8850,-90.0250,10.0,4.8,90.0,5.7,'11111222,11111222,11111222' 
LOOP,urn:ioos:station:wmo:lopl1:1,2016-12-07T19:13:00Z,28.8850,-90.0250,10.0,4.7,74.0,6.1,'11111222,11111222,11111222' 
LOOP,urn:ioos:station:wmo:lopl1:1,2016-12-07T20:13:00Z,28.8850,-90.0250,10.0,5.4,75.0,6.0,'11111222,11111222,11111222' 
LOOP,urn:ioos:station:wmo:lopl1:1,2016-12-07T21:13:00Z,28.8850,-90.0250,10.0,6.0,77.0,6.8,'11111222,11111222,11111222' 
LOOP,urn:ioos:station:wmo:lopl1:1,2016-12-07T22:23:00Z,28.8850,-90.0250,10.0,6.0,93.0,6.7,'11111222,11111222,11111222' 
LOOP,urn:ioos:station:wmo:lopl1:1,2016-12-07T23:23:00Z,28.8850,-90.0250,10.0,6.4,79.0,6.8,'11111222,11111222,11111222' 
LOOP,urn:ioos:station:wmo:lopl1:1,2016-12-08T00:23:00Z,28.8850,-90.0250,10.0,5.8,74.0,6.3,'11111222,11111222,11111222' 
LOOP,urn:ioos:station:wmo:lopl1:1,2016-12-08T01:23:00Z,28.8850,-90.0250,10.0,6.6,69.0,7.6,'11111222,11111222,11111222' 
LOOP,urn:ioos:station:wmo:lopl1:1,2016-12-08T02:23:00Z,28.8850,-90.0250,10.0,7.1,69.0,8.2,'11111222,11111222,11111222' 
LOOP,urn:ioos:station:wmo:lopl1:1,2016-12-08T03:23:00Z,28.8850,-90.0250,10.0,6.0,52.0,6.0,'11111222,11111222,11111222' 
LOOP,urn:ioos:station:wmo:lopl1:1,2016-12-08T04:28:00Z,28.8850,-90.0250,10.0,5.4,57.0,6.4,'11111222,11111222,11111222' 
LOOP,urn:ioos:station:wmo:lopl1:1,2016-12-08T05:28:00Z,28.8850,-90.0250,10.0,5.2,43.0,6.8,'11111222,11111222,11111222' 
LOOP,urn:ioos:station:wmo:lopl1:1,2016-12-08T06:28:00Z,28.8850,-90.0250,10.0,8.3,16.0,9.8,'11111222,11111222,11111222' 
LOOP,urn:ioos:station:wmo:lopl1:1,2016-12-08T07:28:00Z,28.8850,-90.0250,10.0,8.8,21.0,10.0,'11111222,11111222,11111222' 
LOOP,urn:ioos:station:wmo:lopl1:1,2016-12-08T08:28:00Z,28.8850,-90.0250,10.0,9.7,15.0,12.1,'11111222,11111222,11111222' 
LOOP,urn:ioos:station:wmo:lopl1:1,2016-12-08T09:28:00Z,28.8850,-90.0250,10.0,7.9,63.0,9.1,'11111222,11111222,11111222' 
LOOP,urn:ioos:station:wmo:lopl1:1,2016-12-08T10:28:00Z,28.8850,-90.0250,10.0,9.4,82.0,10.2,'11111222,11111222,11111222' 
LOOP,urn:ioos:station:wmo:lopl1:1,2016-12-08T11:28:00Z,28.8850,-90.0250,10.0,8.1,77.0,9.0,'11111222,11111222,11111222' 
LOOP,urn:ioos:station:wmo:lopl1:1,2016-12-08T12:28:00Z,28.8850,-90.0250,10.0,10.7,21.0,12.3,'11111222,11111222,11111222' 
LOOP,urn:ioos:station:wmo:lopl1:1,2016-12-08T13:28:00Z,28.8850,-90.0250,10.0,12.3,34.0,14.0,'11111222,11111222,11111222' 
LOOP,urn:ioos:station:wmo:lopl1:1,2016-12-08T14:33:00Z,28.8850,-90.0250,10.0,13.7,24.0,15.5,'11111222,11111222,11111222' 
LOOP,urn:ioos:station:wmo:lopl1:1,2016-12-08T15:33:00Z,28.8850,-90.0250,10.0,13.9,27.0,16.7,'11111222,11111222,11111222' 
LOOP,urn:ioos:station:wmo:lopl1:1,2016-12-08T16:33:00Z,28.8850,-90.0250,10.0,16.3,17.0,18.2,'11111222,11111222,11111222' 
LOOP,urn:ioos:station:wmo:lopl1:1,2016-12-08T17:33:00Z,28.8850,-90.0250,10.0,16.4,28.0,20.4,'11111222,11111222,11111222' 
LOOP,urn:ioos:station:wmo:lopl1:1,2016-12-08T18:33:00Z,28.8850,-90.0250,10.0,16.5,23.0,18.8,'11111222,11111222,11111222' 
LOOP,urn:ioos:station:wmo:lopl1:1,2016-12-08T19:33:00Z,28.8850,-90.0250,10.0,15.3,18.0,18.4,'11111222,11111222,11111222' 
LOOP,urn:ioos:station:wmo:lopl1:1,2016-12-08T20:33:00Z,28.8850,-90.0250,10.0,13.8,23.0,17.3,'11111222,11111222,11111222' 
LOOP,urn:ioos:station:wmo:lopl1:1,2016-12-08T21:33:00Z,28.8850,-90.0250,10.0,15.1,21.0,16.2,'11111222,11111222,11111222' 
LOOP,urn:ioos:station:wmo:lopl1:1,2016-12-08T22:33:00Z,28.8850,-90.0250,10.0,13.7,21.0,16.9,'11111222,11111222,11111222' 
LOOP,urn:ioos:station:wmo:lopl1:1,2016-12-08T23:33:00Z,28.8850,-90.0250,10.0,14.0,10.0,17.0,'11111222,11111222,11111222' 
LOOP,urn:ioos:station:wmo:lopl1:1,2016-12-09T00:38:00Z,28.8850,-90.0250,10.0,15.4,32.0,18.4,'11111222,11111222,11111222' 
LOOP,urn:ioos:station:wmo:lopl1:1,2016-12-09T01:38:00Z,28.8850,-90.0250,10.0,14.3,12.0,17.9,'11111222,11111222,11111222' 
LOOP,urn:ioos:station:wmo:lopl1:1,2016-12-09T02:38:00Z,28.8850,-90.0250,10.0,16.3,30.0,20.1,'11111222,11111222,11111222' 
LOOP,urn:ioos:station:wmo:lopl1:1,2016-12-09T03:38:00Z,28.8850,-90.0250,10.0,16.2,34.0,19.2,'11111222,11111222,11111222' 
LOOP,urn:ioos:station:wmo:lopl1:1,2016-12-09T04:38:00Z,28.8850,-90.0250,10.0,15.3,30.0,18.3,'11111222,11111222,11111222' 
LOOP,urn:ioos:station:wmo:lopl1:1,2016-12-09T05:38:00Z,28.8850,-90.0250,10.0,16.0,21.0,19.9,'11111222,11111222,11111222' 